Molokai, HI

1:46 AM HST on July 21, 2017 (GMT -1000)
Molokai

Weather History for PHMK - January, 2013

Change the Weather History Date:

Tuesday, January 22, 2013

  Actual Average Record
Temperature  
Mean Temperature 72 °F -  
Max Temperature 75 °F 77 °F 86 °F (1989)
Min Temperature 69 °F 63 °F 53 °F (2003)
Cooling Degree Days 7    
Growing Degree Days 22 (Base 50)    
Moisture  
Dew Point 61 °F    
Average Humidity 67    
Maximum Humidity 81    
Minimum Humidity 60    
Precipitation  
Precipitation 0.00 in - - ()
Sea Level Pressure  
Sea Level Pressure 30.12 in    
Wind  
Wind Speed 13 mph (NE)    
Max Wind Speed 17 mph    
Max Gust Speed 28 mph    
Visibility 10 miles    
Events      
Averages and records for this station are not official NWS values.
T = Trace of Precipitation, MM = Missing Value Source: NWS Daily Summary

Daily Weather History Graph

Daily Weather History Graph

Search for Another Location

Airport or City:

Trip Planner

Search our weather history database for the weather conditions in past years. The results will help you decide how hot, cold, wet, or windy it might be!

Date:

Astronomy

Jan. 22, 2013 Rise Set
Actual Time 7:07 AM HST 6:12 PM HST
Civil Twilight 6:44 AM HST 6:36 PM HST
Nautical Twilight 6:17 AM HST 7:03 PM HST
Astronomical Twilight 5:50 AM HST 7:29 PM HST
Moon 2:49 PM HST (1/22) 3:34 AM HST (1/22)
Length of Visible Light 11h 51m
Length of Day
11h 04m
Waxing Gibbous, 84% of the Moon is Illuminated
Jan 22
Waxing Gibbous
Jan 26
Full
Feb 3
Last Quarter
Feb 9
New
Feb 17
First Quarter

Hourly Weather History & Observations

Time (HST) Temp. Dew Point Humidity Pressure Visibility Wind Dir Wind Speed Gust Speed Precip Events Conditions
12:14 AM 69.8 °F 60.8 °F 73% 30.13 in 10.0 mi NE 13.8 mph 19.6 mph N/A   Mostly Cloudy
12:54 AM 71.1 °F 61.0 °F 70% 30.13 in 10.0 mi NE 13.8 mph 21.9 mph N/A   Mostly Cloudy
1:01 AM 71.6 °F 60.8 °F 69% 30.12 in 10.0 mi NE 16.1 mph 23.0 mph N/A   Mostly Cloudy
1:54 AM 71.1 °F 60.1 °F 68% 30.13 in 10.0 mi NNE 11.5 mph - N/A   Mostly Cloudy
2:54 AM 71.1 °F 60.1 °F 68% 30.12 in 10.0 mi NE 10.4 mph 17.3 mph N/A   Mostly Cloudy
3:54 AM 71.1 °F 59.0 °F 66% 30.12 in 10.0 mi NE 8.1 mph - N/A   Mostly Cloudy
4:54 AM 71.1 °F 60.1 °F 68% 30.12 in 10.0 mi NE 6.9 mph 17.3 mph N/A   Mostly Cloudy
5:54 AM 71.1 °F 59.0 °F 66% 30.13 in 10.0 mi NNE 9.2 mph - N/A   Scattered Clouds
6:54 AM 70.0 °F 59.0 °F 68% 30.15 in 10.0 mi NE 8.1 mph - N/A   Clear
7:54 AM 72.0 °F 60.1 °F 66% 30.15 in 10.0 mi NE 8.1 mph - N/A   Overcast
8:50 AM 71.6 °F 64.4 °F 78% 30.15 in 10.0 mi NNE 8.1 mph 16.1 mph N/A   Overcast
8:54 AM 71.1 °F 64.9 °F 81% 30.16 in 10.0 mi North 11.5 mph 18.4 mph N/A   Overcast
9:35 AM 73.4 °F 62.6 °F 69% 30.16 in 10.0 mi NE 13.8 mph 21.9 mph N/A   Overcast
9:54 AM 75.0 °F 63.0 °F 66% 30.17 in 10.0 mi NE 13.8 mph 23.0 mph N/A   Mostly Cloudy
10:54 AM 75.9 °F 63.0 °F 64% 30.16 in 10.0 mi NE 16.1 mph 24.2 mph 0.00 in   Mostly Cloudy
11:54 AM 75.9 °F 62.1 °F 62% 30.14 in 10.0 mi NE 15.0 mph 27.6 mph N/A   Scattered Clouds
12:54 PM 75.9 °F 61.0 °F 60% 30.10 in 10.0 mi NNE 15.0 mph 25.3 mph N/A   Partly Cloudy
1:54 PM 75.9 °F 61.0 °F 60% 30.08 in 10.0 mi NNE 13.8 mph 25.3 mph N/A   Partly Cloudy
2:54 PM 75.0 °F 60.1 °F 60% 30.06 in 10.0 mi NE 13.8 mph 24.2 mph N/A   Clear
3:54 PM 75.0 °F 60.1 °F 60% 30.06 in 10.0 mi NNE 15.0 mph 27.6 mph N/A   Partly Cloudy
4:54 PM 73.0 °F 60.1 °F 64% 30.08 in 10.0 mi NE 17.3 mph 25.3 mph N/A   Clear
5:54 PM 71.1 °F 59.0 °F 66% 30.09 in 10.0 mi ENE 13.8 mph 20.7 mph N/A   Partly Cloudy
6:54 PM 70.0 °F 57.9 °F 65% 30.09 in 10.0 mi NE 13.8 mph 23.0 mph N/A   Clear
7:54 PM 71.1 °F 61.0 °F 70% 30.10 in 10.0 mi NE 11.5 mph 21.9 mph N/A   Scattered Clouds
8:54 PM 70.0 °F 60.1 °F 71% 30.10 in 10.0 mi NE 11.5 mph 21.9 mph N/A   Clear
9:54 PM 70.0 °F 60.1 °F 71% 30.09 in 10.0 mi NE 13.8 mph 26.5 mph N/A   Partly Cloudy
10:54 PM 70.0 °F 57.0 °F 63% 30.09 in 10.0 mi NE 13.8 mph 26.5 mph N/A   Clear
11:54 PM 70.0 °F 60.1 °F 71% 30.07 in 10.0 mi NE 17.3 mph 25.3 mph N/A   Mostly Cloudy